User: anonymous   Login
Location: Hickory_CSC
(35.7330°N, 81.3330°W)
Time: 17:05:54
(UTC-04:00)
Language:

Cosmos 1356 Rocket - Orbit

View from above orbital plane
View from above orbital plane
View from above satellite
View from above satellite

Ground track
Ground track

The orbit data is extracted from the following two-line orbital elements,

1 13154U 82039B   16149.92374725 +.00000474 +00000-0 +37523-4 0  9995
2 13154 081.1829 304.1898 0041664 102.1949 258.3941 14.98049018845929
Epoch (UTC): 28 May 2016 22:10:11
Eccentricity: 0.0041664
inclination: 81.1829°
perigee height: 544 km
apogee height: 602 km
right ascension of ascending node: 304.1898°
argument of perigee: 102.1949°
revolutions per day: 14.98049018
mean anomaly at epoch: 258.3941°
orbit number at epoch: 84592

The dashed part of the orbit path shows where the satellite is in the earth's shadow,  

DLR